When you browse on this site, cookies collect data to enhance your experience and personalize the content and advertising you see.
Visit our Privacy Policy to learn more. By continuing to use the site, you agree to this use of cookies and data.
  • Em Portugal
  • Lista de países
  • Para 7 dias
  • Temperatura da água
  • Mapa do tempo
  • Widgets de tempo
  • user-avatar
    Iniciar Sessão

    Previsão horária em Rustawi

    Hoje, 27 Maio, Quarta-feira

    Tempo Temperatura Precipitação Vento Pressão Humidade
    00:00 +18°C° 0 mm 1 m/s 730 mmHg 66%
    01:00 +16°C° 0 mm 1 m/s 730 mmHg 70%
    02:00 +15°C° 0 mm 1 m/s 729 mmHg 74%
    03:00 +14°C° 0 mm 1 m/s 729 mmHg 77%
    04:00 +15°C° 0 mm 1 m/s 730 mmHg 76%
    05:00 +15°C° 0 mm 1 m/s 730 mmHg 75%
    06:00 +16°C° 0 mm 1 m/s 730 mmHg 74%
    07:00 +19°C° 0 mm 1 m/s 730 mmHg 69%
    08:00 +20°C° 0 mm 1 m/s 730 mmHg 63%
    09:00 +22°C° 0 mm 1 m/s 730 mmHg 58%
    10:00 +23°C° 0 mm 2 m/s 729 mmHg 55%
    11:00 +24°C° 0 mm 2 m/s 729 mmHg 52%
    12:00 +25°C° 0 mm 3 m/s 729 mmHg 49%
    13:00 +26°C° 0 mm 2 m/s 729 mmHg 48%
    14:00 +26°C° 0 mm 2 m/s 728 mmHg 47%
    15:00 +27°C° 0 mm 2 m/s 728 mmHg 47%
    16:00 +26°C° 0 mm 2 m/s 728 mmHg 52%
    17:00 +25°C° 0 mm 1 m/s 728 mmHg 56%
    18:00 +25°C° 0 mm 1 m/s 728 mmHg 61%
    19:00 +23°C° 0 mm 1 m/s 728 mmHg 65%
    20:00 +21°C° 0 mm 1 m/s 728 mmHg 68%
    21:00 +19°C° 0 mm 1 m/s 728 mmHg 72%
    22:00 +19°C° 0 mm 1 m/s 728 mmHg 72%
    23:00 +19°C° 0 mm 1 m/s 728 mmHg 73%

    Amanhã, 28 Maio, Quinta-feira

    Tempo Temperatura Precipitação Vento Pressão Humidade
    00:00 +18°C° 0 mm 1 m/s 728 mmHg 74%
    01:00 +18°C° 0 mm 1 m/s 728 mmHg 74%
    02:00 +18°C° 0 mm 1 m/s 727 mmHg 74%
    03:00 +18°C° 0 mm 1 m/s 727 mmHg 74%
    04:00 +19°C° 0 mm 1 m/s 727 mmHg 72%
    05:00 +19°C° 0 mm 1 m/s 727 mmHg 71%
    06:00 +20°C° 0 mm 1 m/s 727 mmHg 70%
    07:00 +22°C° 0 mm 1 m/s 727 mmHg 64%
    08:00 +24°C° 0 mm 1 m/s 726 mmHg 59%
    09:00 +26°C° 0 mm 1 m/s 726 mmHg 54%
    10:00 +27°C° 0 mm 1 m/s 726 mmHg 51%
    11:00 +28°C° 0 mm 2 m/s 726 mmHg 48%
    12:00 +29°C° 0 mm 2 m/s 726 mmHg 45%
    13:00 +30°C° 0 mm 2 m/s 725 mmHg 44%
    14:00 +30°C° 0 mm 2 m/s 725 mmHg 43%
    15:00 +31°C° 0 mm 2 m/s 725 mmHg 43%
    16:00 +30°C° 0 mm 2 m/s 724 mmHg 48%
    17:00 +29°C° 0 mm 1 m/s 724 mmHg 52%
    18:00 +29°C° 0 mm 1 m/s 724 mmHg 57%
    19:00 +27°C° 0 mm 1 m/s 725 mmHg 61%
    20:00 +25°C° 0 mm 1 m/s 725 mmHg 65%
    21:00 +23°C° 0 mm 1 m/s 725 mmHg 68%
    22:00 +22°C° 0 mm 1 m/s 725 mmHg 69%
    23:00 +22°C° 0 mm 1 m/s 725 mmHg 69%

    Depois de amanhã, 29 Maio, Sexta-feira

    Tempo Temperatura Precipitação Vento Pressão Humidade
    00:00 +22°C° 0 mm 1 m/s 725 mmHg 70%
    01:00 +21°C° 0 mm 1 m/s 725 mmHg 70%
    02:00 +21°C° 0 mm 1 m/s 724 mmHg 71%
    03:00 +20°C° 0 mm 1 m/s 724 mmHg 71%
    04:00 +21°C° 0.1 mm 1 m/s 724 mmHg 71%
    05:00 +21°C° 0.1 mm 1 m/s 724 mmHg 71%
    06:00 +20°C° 0.1 mm 0 m/s 723 mmHg 71%
    07:00 +24°C° 0 mm 1 m/s 723 mmHg 66%
    08:00 +25°C° 0 mm 1 m/s 723 mmHg 60%
    09:00 +27°C° 0 mm 1 m/s 722 mmHg 55%
    10:00 +28°C° 0 mm 2 m/s 722 mmHg 51%
    11:00 +30°C° 0 mm 2 m/s 721 mmHg 47%
    12:00 +31°C° 0 mm 3 m/s 721 mmHg 43%
    13:00 +31°C° 0 mm 3 m/s 721 mmHg 42%
    14:00 +33°C° 0 mm 4 m/s 720 mmHg 41%
    15:00 +33°C° 0 mm 4 m/s 719 mmHg 41%
    16:00 +31°C° 0 mm 3 m/s 719 mmHg 45%
    17:00 +30°C° 0 mm 3 m/s 719 mmHg 50%
    18:00 +29°C° 0 mm 2 m/s 719 mmHg 54%
    19:00 +26°C° 0.2 mm 3 m/s 720 mmHg 61%
    20:00 +23°C° 0.2 mm 4 m/s 720 mmHg 68%
    21:00 +20°C° 0.2 mm 5 m/s 721 mmHg 75%
    22:00 +19°C° 0.7 mm 5 m/s 721 mmHg 79%
    23:00 +18°C° 0.7 mm 4 m/s 721 mmHg 82%

    30 Maio, Sábado

    Tempo Temperatura Precipitação Vento Pressão Humidade
    00:00 +17°C° 0.7 mm 4 m/s 721 mmHg 86%
    01:00 +17°C° 0.2 mm 4 m/s 721 mmHg 86%
    02:00 +15°C° 0.2 mm 4 m/s 721 mmHg 86%
    03:00 +15°C° 0.2 mm 4 m/s 722 mmHg 86%
    04:00 +15°C° 0 mm 4 m/s 722 mmHg 84%
    05:00 +15°C° 0 mm 4 m/s 722 mmHg 82%
    06:00 +17°C° 0 mm 4 m/s 723 mmHg 81%
    07:00 +19°C° 0 mm 5 m/s 723 mmHg 73%
    08:00 +20°C° 0 mm 5 m/s 723 mmHg 65%
    09:00 +22°C° 0 mm 6 m/s 723 mmHg 56%
    10:00 +23°C° 0 mm 6 m/s 723 mmHg 52%
    11:00 +26°C° 0 mm 7 m/s 723 mmHg 48%
    12:00 +27°C° 0 mm 7 m/s 724 mmHg 44%
    13:00 +27°C° 0 mm 7 m/s 723 mmHg 42%
    14:00 +27°C° 0 mm 7 m/s 723 mmHg 41%
    15:00 +28°C° 0 mm 7 m/s 723 mmHg 40%
    16:00 +26°C° 0 mm 7 m/s 723 mmHg 44%
    17:00 +24°C° 0 mm 7 m/s 724 mmHg 48%
    18:00 +23°C° 0 mm 7 m/s 724 mmHg 52%
    19:00 +21°C° 0 mm 6 m/s 724 mmHg 54%
    20:00 +20°C° 0 mm 5 m/s 725 mmHg 57%
    21:00 +18°C° 0 mm 4 m/s 725 mmHg 60%
    22:00 +17°C° 0 mm 4 m/s 725 mmHg 61%
    23:00 +17°C° 0 mm 4 m/s 726 mmHg 62%

    31 Maio, Domingo

    Tempo Temperatura Precipitação Vento Pressão Humidade
    00:00 +15°C° 0 mm 4 m/s 726 mmHg 63%
    01:00 +15°C° 0 mm 4 m/s 726 mmHg 65%
    02:00 +14°C° 0 mm 4 m/s 726 mmHg 66%
    03:00 +14°C° 0 mm 3 m/s 726 mmHg 68%
    04:00 +14°C° 0 mm 3 m/s 726 mmHg 68%
    05:00 +16°C° 0 mm 3 m/s 726 mmHg 68%
    06:00 +16°C° 0 mm 3 m/s 727 mmHg 68%
    07:00 +18°C° 0 mm 3 m/s 727 mmHg 60%
    08:00 +21°C° 0 mm 2 m/s 727 mmHg 51%
    09:00 +24°C° 0 mm 2 m/s 727 mmHg 42%
    10:00 +25°C° 0 mm 2 m/s 727 mmHg 38%
    11:00 +27°C° 0 mm 2 m/s 726 mmHg 34%
    12:00 +29°C° 0 mm 2 m/s 726 mmHg 29%
    13:00 +29°C° 0 mm 2 m/s 726 mmHg 28%
    14:00 +30°C° 0 mm 1 m/s 726 mmHg 27%
    15:00 +30°C° 0 mm 1 m/s 726 mmHg 25%
    16:00 +29°C° 0 mm 1 m/s 726 mmHg 31%
    17:00 +28°C° 0 mm 1 m/s 725 mmHg 37%
    18:00 +28°C° 0 mm 2 m/s 725 mmHg 43%
    19:00 +26°C° 0 mm 2 m/s 726 mmHg 45%
    20:00 +24°C° 0 mm 1 m/s 726 mmHg 46%
    21:00 +21°C° 0 mm 1 m/s 727 mmHg 48%
    22:00 +21°C° 0 mm 1 m/s 727 mmHg 51%
    23:00 +19°C° 0 mm 2 m/s 727 mmHg 54%

    1 Junho, Segunda-feira

    Tempo Temperatura Precipitação Vento Pressão Humidade
    00:00 +18°C° 0 mm 2 m/s 727 mmHg 58%
    01:00 +18°C° 0 mm 1 m/s 726 mmHg 62%
    02:00 +18°C° 0 mm 1 m/s 726 mmHg 67%
    03:00 +16°C° 0 mm 1 m/s 726 mmHg 72%
    04:00 +18°C° 0 mm 1 m/s 726 mmHg 70%
    05:00 +19°C° 0 mm 1 m/s 726 mmHg 69%
    06:00 +19°C° 0 mm 1 m/s 726 mmHg 68%
    07:00 +21°C° 0 mm 1 m/s 726 mmHg 62%
    08:00 +21°C° 0 mm 2 m/s 726 mmHg 57%
    09:00 +23°C° 0 mm 2 m/s 725 mmHg 52%
    10:00 +25°C° 0 mm 3 m/s 725 mmHg 50%
    11:00 +26°C° 0 mm 3 m/s 725 mmHg 48%
    12:00 +27°C° 0 mm 3 m/s 725 mmHg 46%
    13:00 +27°C° 0 mm 3 m/s 724 mmHg 45%
    14:00 +28°C° 0 mm 3 m/s 724 mmHg 44%
    15:00 +28°C° 0 mm 3 m/s 723 mmHg 44%
    16:00 +28°C° 0 mm 2 m/s 723 mmHg 47%
    17:00 +28°C° 0 mm 2 m/s 723 mmHg 51%
    18:00 +27°C° 0 mm 2 m/s 723 mmHg 54%
    19:00 +25°C° 0 mm 1 m/s 723 mmHg 58%
    20:00 +23°C° 0 mm 1 m/s 723 mmHg 62%
    21:00 +22°C° 0 mm 1 m/s 724 mmHg 66%
    22:00 +21°C° 0.1 mm 1 m/s 724 mmHg 67%
    23:00 +21°C° 0.1 mm 1 m/s 723 mmHg 69%
    Mostrar mais